Location: Limerick
(52.6800°N, 8.6400°W)
Time: 13:39:00
(UTC+01:00)

Amateur Radio Satellites - All Passes

Search period start: 20 August 2014 13:09
Search period end: 21 August 2014 13:09
Location: Limerick, 52.6800°N, 8.6400°W

Satellite Date Start Highest point End Downlink Frequencies (MHz)
Time Altitude Azimuth
HO-68 20 Aug 13:11:58 13:17:33 26° 313° (NW) 13:23:07 435.675 MHz FM
JAS-1B 20 Aug 13:14:57 13:23:32 37° 53° (NE) 13:31:29 435.800 - 435.900 CW/SSB
TMSAT-1 20 Aug 13:27:07 13:29:11 12° 46° (NE) 13:31:15 436.925 FM
RS-15 20 Aug 13:49:50 14:00:27 52° 338° (NNW) 14:11:10 29.354 - 29.394 USB, Beacon 29.352 USB
AO-7 20 Aug 13:51:36 13:57:03 20° 32° (NNE) 14:02:30 29.400 - 29.500 MHz
FUNcube-1 20 Aug 14:00:55 14:03:19 15° 305° (NW) 14:05:45 145.950 - 145.970 MHz USB
Gurwin Techsat 1B 20 Aug 14:04:39 14:09:01 27° 58° (ENE) 14:13:23 435.225 FM
Oscar 19 20 Aug 14:10:01 14:15:10 85° 254° (WSW) 14:20:24 437.125 CW, 437.150 USB
ITAMSAT 1 20 Aug 14:15:53 14:20:57 58° 68° (ENE) 14:26:03 435.822 SSB
UOSAT-12 20 Aug 14:16:18 14:19:48 20° 6° (N) 14:23:18 437.025 FM, 437.400 FM
Uribyol 2 20 Aug 14:28:50 14:33:59 76° 71° (ENE) 14:39:10 436.500 FM
AO-Echo 20 Aug 14:30:47 14:35:57 78° 72° (ENE) 14:40:59 ?
SO-50 20 Aug 14:32:35 14:37:09 46° 36° (NE) 14:41:46 436.795 FM
AO-27 20 Aug 14:41:38 14:46:50 90° 254° (WSW) 14:52:04 436.795 MHz FM
Oscar 16 20 Aug 14:43:12 14:48:08 46° 261° (W) 14:53:08 437.025 USB, Beacon 2401.1428
TMSAT-1 20 Aug 15:02:54 15:08:01 52° 67° (ENE) 15:13:09 436.925 FM
JAS-1B 20 Aug 15:03:19 15:13:18 85° 254° (WSW) 15:22:35 435.800 - 435.900 CW/SSB
Uosat F 20 Aug 15:12:54 15:16:23 19° 54° (NE) 15:19:52 435.120 FM
MaSat-1 20 Aug 15:31:20 15:32:43 11° 97° (E) 15:34:08 437.345 MHz
AO-7 20 Aug 15:40:09 15:48:06 51° 57° (ENE) 15:56:04 29.400 - 29.500 MHz
Gurwin Techsat 1B 20 Aug 15:43:22 15:48:38 64° 258° (WSW) 15:53:57 435.225 FM
ISS 20 Aug 15:52:22 15:54:33 16° 143° (SE) 15:56:44 145.800 FM
Oscar 19 20 Aug 15:52:26 15:55:21 15° 274° (W) 15:58:17 437.125 CW, 437.150 USB
ITAMSAT 1 20 Aug 15:56:32 16:00:50 26° 268° (W) 16:05:08 435.822 SSB
UOSAT-12 20 Aug 15:56:51 16:01:13 35° 30° (NNE) 16:05:34 437.025 FM, 437.400 FM
RS-15 20 Aug 16:05:00 16:15:27 46° 12° (NNE) 16:26:06 29.354 - 29.394 USB, Beacon 29.352 USB
JAS-2 20 Aug 16:08:55 16:10:55 12° 44° (NE) 16:12:51 435.800 - 435.900 CW/SSB, 435.910 FM
Uribyol 2 20 Aug 16:10:22 16:14:03 20° 271° (W) 16:17:46 436.500 FM
AO-Echo 20 Aug 16:11:42 16:15:17 19° 271° (W) 16:18:50 ?
SO-50 20 Aug 16:13:16 16:17:45 43° 236° (WSW) 16:22:19 436.795 FM
AO-27 20 Aug 16:23:55 16:27:07 16° 273° (W) 16:30:19 436.795 MHz FM
TMSAT-1 20 Aug 16:43:36 16:48:13 30° 267° (W) 16:52:50 436.925 FM
Uosat F 20 Aug 16:49:33 16:54:35 87° 254° (WSW) 16:59:39 435.120 FM
JAS-1B 20 Aug 16:56:50 17:04:53 28° 274° (W) 17:12:35 435.800 - 435.900 CW/SSB
MaSat-1 20 Aug 17:03:57 17:08:45 60° 118° (ESE) 17:13:54 437.345 MHz
OPAL 20 Aug 17:24:26 17:28:57 29° 96° (E) 17:33:27 ?
ISS 20 Aug 17:27:32 17:30:46 51° 162° (SSE) 17:34:02 145.800 FM
Gurwin Techsat 1B 20 Aug 17:28:11 17:29:43 11° 278° (W) 17:31:15 435.225 FM
Hamsat 20 Aug 17:30:38 17:34:12 26° 62° (ENE) 17:37:50 145.90 MHz
AO-7 20 Aug 17:32:52 17:40:58 52° 259° (W) 17:49:05 29.400 - 29.500 MHz
UOSAT-12 20 Aug 17:37:00 17:41:43 66° 231° (SW) 17:46:23 437.025 FM, 437.400 FM
JAS-2 20 Aug 17:48:42 17:54:50 46° 65° (ENE) 18:00:20 435.800 - 435.900 CW/SSB, 435.910 FM
RS-15 20 Aug 18:18:30 18:29:33 78° 42° (NE) 18:40:56 29.354 - 29.394 USB, Beacon 29.352 USB
SO-67 20 Aug 18:26:16 18:28:07 14° 59° (ENE) 18:29:57 435.3500 MHz FM
HO-68 20 Aug 18:28:54 18:31:52 13° 31° (NNE) 18:34:50 435.675 MHz FM
Uosat F 20 Aug 18:31:16 18:34:08 15° 273° (W) 18:37:01 435.120 FM
MaSat-1 20 Aug 18:41:41 18:46:15 34° 319° (NW) 18:51:01 437.345 MHz
STRAND 1 20 Aug 18:51:46 18:52:46 11° 82° (E) 18:53:47 ?
OPAL 20 Aug 19:03:02 19:08:06 53° 296° (WNW) 19:13:09 ?
ISS 20 Aug 19:04:03 19:07:24 76° 182° (S) 19:10:44 145.800 FM
Hamsat 20 Aug 19:05:53 19:10:00 44° 262° (W) 19:14:10 145.90 MHz
UOSAT-12 20 Aug 19:19:05 19:21:01 12° 251° (WSW) 19:22:55 437.025 FM, 437.400 FM
AO-7 20 Aug 19:33:01 19:35:55 12° 282° (WNW) 19:38:49 29.400 - 29.500 MHz
JAS-2 20 Aug 19:33:51 19:40:02 41° 263° (W) 19:45:34 435.800 - 435.900 CW/SSB, 435.910 FM
SO-67 20 Aug 19:57:17 20:00:44 66° 259° (WSW) 20:04:13 435.3500 MHz FM
Sapphire 20 Aug 19:58:53 20:03:24 28° 112° (ESE) 20:07:57 437.095 MHz 1200 baud AX-25 AFSK
UKube-1 20 Aug 20:04:02 20:05:26 11° 50° (NE) 20:06:50 145.840 MHz, 145.915 MHz
HO-68 20 Aug 20:11:17 20:17:42 38° 55° (NE) 20:24:07 435.675 MHz FM
MaSat-1 20 Aug 20:22:01 20:24:56 15° 342° (NNW) 20:27:52 437.345 MHz
Oscar 11 20 Aug 20:23:29 20:23:44 10° 50° (NE) 20:23:59 145.825 FM, Beacon 2401.500 USB
STRAND 1 20 Aug 20:27:57 20:33:02 63° 102° (ESE) 20:38:04 ?
PCSat 20 Aug 20:28:45 20:33:54 47° 119° (ESE) 20:39:06 145.825 MHz
RS-15 20 Aug 20:31:14 20:41:13 42° 248° (WSW) 20:51:34 29.354 - 29.394 USB, Beacon 29.352 USB
ISS 20 Aug 20:40:47 20:43:58 41° 202° (SSW) 20:47:08 145.800 FM
OPAL 20 Aug 20:43:36 20:45:58 13° 316° (NW) 20:48:19 ?
UKube-1 20 Aug 21:36:31 21:40:49 62° 70° (ENE) 21:45:08 145.840 MHz, 145.915 MHz
Sapphire 20 Aug 21:41:04 21:46:27 67° 313° (NW) 21:51:54 437.095 MHz 1200 baud AX-25 AFSK
FUNcube-1 20 Aug 21:50:20 21:53:36 23° 61° (ENE) 21:56:54 145.950 - 145.970 MHz USB
Oscar 11 20 Aug 21:54:47 21:59:00 55° 70° (ENE) 22:03:16 145.825 FM, Beacon 2401.500 USB
HO-68 20 Aug 21:58:03 22:05:07 63° 256° (WSW) 22:12:15 435.675 MHz FM
MaSat-1 20 Aug 22:02:03 22:04:14 12° 7° (N) 22:06:24 437.345 MHz
STRAND 1 20 Aug 22:07:44 22:11:52 26° 302° (WNW) 22:16:00 ?
PCSat 20 Aug 22:12:14 22:17:25 44° 320° (NW) 22:22:39 145.825 MHz
ISS 20 Aug 22:18:40 22:20:03 12° 220° (SW) 22:21:27 145.800 FM
AO-40 20 Aug 22:52:44 03:41:48 27° 183° (S) 08:36:51 Beacon 2401.320
UKube-1 20 Aug 23:14:20 23:17:26 19° 269° (W) 23:20:34 145.840 MHz, 145.915 MHz
FUNcube-1 20 Aug 23:25:43 23:29:45 49° 260° (W) 23:33:52 145.950 - 145.970 MHz USB
Sapphire 20 Aug 23:26:27 23:30:52 25° 336° (NNW) 23:35:17 437.095 MHz 1200 baud AX-25 AFSK
Oscar 11 20 Aug 23:32:14 23:35:32 21° 269° (W) 23:38:51 145.825 FM, Beacon 2401.500 USB
MaSat-1 20 Aug 23:39:17 23:43:17 22° 31° (NNE) 23:47:04 437.345 MHz
HO-68 20 Aug 23:50:42 23:54:20 14° 278° (W) 23:58:00 435.675 MHz FM
PCSat 20 Aug 23:58:12 00:02:12 20° 345° (NNW) 00:06:13 145.825 MHz
Sapphire 21 Aug 01:12:31 01:16:11 18° 2° (N) 01:19:50 437.095 MHz 1200 baud AX-25 AFSK
MaSat-1 21 Aug 01:16:12 01:21:20 73° 54° (NE) 01:25:57 437.345 MHz
KITSAT 1 21 Aug 01:27:41 01:33:37 23° 104° (ESE) 01:39:34 435.175 FM
Saudisat 1A 21 Aug 01:29:24 01:31:16 13° 110° (ESE) 01:33:09 436.775 MHz
PCSat 21 Aug 01:43:45 01:47:37 19° 11° (N) 01:51:28 145.825 MHz
Oscar 19 21 Aug 02:16:07 02:20:13 23° 90° (E) 02:24:18 437.125 CW, 437.150 USB
ITAMSAT 1 21 Aug 02:24:24 02:26:44 13° 84° (E) 02:29:03 435.822 SSB
AO-Echo 21 Aug 02:33:24 02:36:12 15° 86° (E) 02:38:57 ?
Uribyol 2 21 Aug 02:36:30 02:39:54 17° 88° (E) 02:43:17 436.500 FM
JAS-1B 21 Aug 02:45:01 02:50:58 23° 82° (E) 02:56:12 435.800 - 435.900 CW/SSB
Oscar 16 21 Aug 02:48:33 02:53:29 41° 97° (E) 02:58:23 437.025 USB, Beacon 2401.1428
AO-27 21 Aug 02:49:18 02:53:12 21° 90° (E) 02:57:05 436.795 MHz FM
MaSat-1 21 Aug 02:54:12 02:57:53 21° 256° (WSW) 03:01:19 437.345 MHz
Sapphire 21 Aug 02:56:44 03:01:24 28° 28° (NNE) 03:06:03 437.095 MHz 1200 baud AX-25 AFSK
Saudisat 1A 21 Aug 03:05:41 03:10:05 71° 130° (SE) 03:14:31 436.775 MHz
OPAL 21 Aug 03:08:15 03:11:54 21° 51° (NE) 03:15:35 ?
TMSAT-1 21 Aug 03:14:17 03:16:40 13° 83° (E) 03:19:02 436.925 FM
KITSAT 1 21 Aug 03:19:47 03:27:53 79° 126° (SE) 03:36:00 435.175 FM
PCSat 21 Aug 03:27:28 03:32:33 38° 36° (NE) 03:37:36 145.825 MHz
Gurwin Techsat 1B 21 Aug 03:53:36 03:58:26 34° 95° (E) 04:03:13 435.225 FM
Oscar 19 21 Aug 03:54:52 04:00:02 66° 290° (WNW) 04:05:11 437.125 CW, 437.150 USB
ITAMSAT 1 21 Aug 04:01:58 04:07:10 74° 104° (ESE) 04:12:21 435.822 SSB
AO-Echo 21 Aug 04:10:52 04:15:42 85° 287° (WNW) 04:20:24 ?
Uribyol 2 21 Aug 04:14:52 04:20:05 85° 287° (WNW) 04:25:16 436.500 FM
Oscar 16 21 Aug 04:28:04 04:32:50 37° 297° (WNW) 04:37:35 437.025 USB, Beacon 2401.1428
AO-27 21 Aug 04:28:05 04:33:16 71° 290° (WNW) 04:38:25 436.795 MHz FM
JAS-1B 21 Aug 04:34:47 04:42:57 89° 288° (WNW) 04:49:39 435.800 - 435.900 CW/SSB
Sapphire 21 Aug 04:40:06 04:45:35 85° 51° (NE) 04:51:01 437.095 MHz 1200 baud AX-25 AFSK
OPAL 21 Aug 04:45:10 04:50:11 86° 251° (WSW) 04:55:20 ?
Saudisat 1A 21 Aug 04:46:06 04:50:03 31° 332° (NNW) 04:54:02 436.775 MHz
Uosat F 21 Aug 04:52:06 04:55:36 19° 89° (E) 04:59:05 435.120 FM
TMSAT-1 21 Aug 04:52:15 04:57:34 73° 104° (ESE) 05:02:51 436.925 FM
Oscar 10/S400 21 Aug 04:59:18 06:01:19 27° 233° (SW) 09:15:07 145.825 - 145.975 CW/USB, Beacon 145.810 USB
PCSat 21 Aug 05:10:55 05:16:16 60° 238° (WSW) 05:21:36 145.825 MHz
KITSAT 1 21 Aug 05:16:18 05:24:00 44° 332° (NNW) 05:31:42 435.175 FM
AO-7 21 Aug 05:27:15 05:35:00 41° 97° (E) 05:42:40 29.400 - 29.500 MHz
Gurwin Techsat 1B 21 Aug 05:33:30 05:38:34 46° 295° (WNW) 05:43:36 435.225 FM
Oscar 19 21 Aug 05:35:40 05:38:30 15° 311° (NW) 05:41:19 437.125 CW, 437.150 USB
ITAMSAT 1 21 Aug 05:42:14 05:46:12 23° 304° (NW) 05:50:10 435.822 SSB
AO-Echo 21 Aug 05:50:53 05:53:47 16° 307° (NW) 05:56:40 ?
Uribyol 2 21 Aug 05:55:25 05:58:53 18° 308° (NW) 06:02:20 436.500 FM
AO-27 21 Aug 06:08:57 06:11:58 16° 310° (NW) 06:14:58 436.795 MHz FM
STRAND 1 21 Aug 06:11:45 06:16:10 30° 60° (ENE) 06:20:35 ?
Sapphire 21 Aug 06:24:24 06:28:23 21° 252° (WSW) 06:32:22 437.095 MHz 1200 baud AX-25 AFSK
JAS-1B 21 Aug 06:25:53 06:32:28 28° 314° (NW) 06:38:12 435.800 - 435.900 CW/SSB
OPAL 21 Aug 06:26:59 06:29:53 15° 271° (W) 06:32:48 ?
Saudisat 1A 21 Aug 06:27:50 06:30:54 18° 355° (N) 06:33:58 436.775 MHz
Uosat F 21 Aug 06:29:58 06:34:59 76° 289° (WNW) 06:39:59 435.120 FM
TMSAT-1 21 Aug 06:32:53 06:37:02 24° 304° (NW) 06:41:11 436.925 FM
SO-50 21 Aug 06:35:30 06:38:04 15° 111° (ESE) 06:40:40 436.795 FM
JAS-2 21 Aug 06:36:53 06:40:30 19° 88° (E) 06:44:05 435.800 - 435.900 CW/SSB, 435.910 FM
Hamsat 21 Aug 06:45:54 06:49:25 23° 91° (E) 06:52:55 145.90 MHz
PCSat 21 Aug 06:56:49 06:58:36 12° 258° (WSW) 07:00:23 145.825 MHz
KITSAT 1 21 Aug 07:14:26 07:21:31 32° 0° (N) 07:28:36 435.175 FM
Gurwin Techsat 1B 21 Aug 07:15:54 07:17:20 11° 316° (NW) 07:18:46 435.225 FM
AO-7 21 Aug 07:20:03 07:28:13 63° 299° (WNW) 07:36:20 29.400 - 29.500 MHz
STRAND 1 21 Aug 07:50:12 07:55:10 51° 260° (W) 08:00:10 ?
Saudisat 1A 21 Aug 08:08:21 08:11:55 23° 20° (NNE) 08:15:28 436.775 MHz
Uosat F 21 Aug 08:10:02 08:13:02 16° 309° (NW) 08:16:01 435.120 FM
SO-50 21 Aug 08:13:24 08:17:55 81° 132° (SE) 08:22:34 436.795 FM
JAS-1B 21 Aug 08:17:58 08:20:10 11° 340° (NNW) 08:22:18 435.800 - 435.900 CW/SSB
JAS-2 21 Aug 08:21:05 08:26:21 74° 289° (WNW) 08:31:31 435.800 - 435.900 CW/SSB, 435.910 FM
Hamsat 21 Aug 08:21:25 08:25:39 50° 291° (WNW) 08:29:52 145.90 MHz
SO-67 21 Aug 08:48:15 08:51:44 64° 102° (ESE) 08:55:10 435.3500 MHz FM
RS-15 21 Aug 08:53:28 09:00:54 21° 99° (E) 09:08:16 29.354 - 29.394 USB, Beacon 29.352 USB
KITSAT 1 21 Aug 09:11:19 09:19:02 45° 29° (NNE) 09:26:43 435.175 FM
AO-7 21 Aug 09:13:33 09:19:34 23° 323° (NW) 09:25:34 29.400 - 29.500 MHz
HO-68 21 Aug 09:19:56 09:24:56 20° 86° (E) 09:29:54 435.675 MHz FM
UOSAT-12 21 Aug 09:33:09 09:37:38 50° 125° (SE) 09:42:12 437.025 FM, 437.400 FM
Saudisat 1A 21 Aug 09:47:51 09:52:16 65° 42° (NE) 09:56:40 436.775 MHz
SO-50 21 Aug 09:54:57 09:58:59 30° 334° (NNW) 10:03:06 436.795 FM
JAS-2 21 Aug 10:07:38 10:10:37 16° 311° (NW) 10:13:34 435.800 - 435.900 CW/SSB, 435.910 FM
SO-67 21 Aug 10:22:30 10:24:22 14° 300° (WNW) 10:26:14 435.3500 MHz FM
UKube-1 21 Aug 10:55:00 10:59:15 49° 100° (E) 11:03:27 145.840 MHz, 145.915 MHz
RS-15 21 Aug 11:00:16 11:11:09 70° 124° (SE) 11:21:58 29.354 - 29.394 USB, Beacon 29.352 USB
HO-68 21 Aug 11:06:35 11:13:47 81° 108° (ESE) 11:20:57 435.675 MHz FM
AO-7 21 Aug 11:06:49 11:09:25 12° 350° (N) 11:12:01 29.400 - 29.500 MHz
KITSAT 1 21 Aug 11:07:01 11:15:07 78° 234° (SW) 11:23:10 435.175 FM
FUNcube-1 21 Aug 11:08:59 11:12:22 22° 91° (E) 11:15:49 145.950 - 145.970 MHz USB
Oscar 11 21 Aug 11:12:30 11:16:46 49° 99° (E) 11:21:00 145.825 FM, Beacon 2401.500 USB
UOSAT-12 21 Aug 11:13:30 11:17:56 41° 327° (NNW) 11:22:26 437.025 FM, 437.400 FM
Saudisat 1A 21 Aug 11:27:57 11:31:32 24° 242° (WSW) 11:35:05 436.775 MHz
SO-50 21 Aug 11:37:33 11:40:54 19° 359° (N) 11:44:19 436.795 FM
JAS-1B 21 Aug 11:48:31 11:53:57 17° 34° (NNE) 11:59:05 435.800 - 435.900 CW/SSB
Oscar 19 21 Aug 12:03:00 12:05:19 13° 47° (NE) 12:07:39 437.125 CW, 437.150 USB
Uribyol 2 21 Aug 12:25:07 12:26:23 11° 44° (NE) 12:27:40 436.500 FM
UKube-1 21 Aug 12:31:41 12:35:14 25° 300° (WNW) 12:38:46 145.840 MHz, 145.915 MHz
Oscar 16 21 Aug 12:34:02 12:37:51 21° 55° (NE) 12:41:41 437.025 USB, Beacon 2401.1428
AO-27 21 Aug 12:37:18 12:39:35 13° 47° (NE) 12:41:52 436.795 MHz FM
FUNcube-1 21 Aug 12:44:49 12:49:05 55° 290° (WNW) 12:53:27 145.950 - 145.970 MHz USB
Oscar 11 21 Aug 12:49:09 12:52:44 25° 299° (WNW) 12:56:18 145.825 FM, Beacon 2401.500 USB
HO-68 21 Aug 12:54:54 13:00:54 30° 309° (NW) 13:06:53 435.675 MHz FM
AO-7 21 Aug 12:55:10 12:58:45 14° 18° (NNE) 13:02:19 29.400 - 29.500 MHz
UOSAT-12 21 Aug 12:55:40 12:59:15 21° 350° (N) 13:02:50 437.025 FM, 437.400 FM
